Location: Guadanolo
(41.9167°N, 12.9333°E)
Time: 04:09:26
(UTC+00:00)

Cosmos 1833 - Pass Details

Date: 16 September 2019
Orbit: 836 x 863 km, 70.9° (Epoch: 18 October)

Event Time Altitude Azimuth Distance (km) Brightness Sun altitude
Rises 17:52:54 0° 206° (SSW) 3,412 7.6 -7.5°
Reaches altitude 10° 17:55:21 10° 208° (SSW) 2,476 6.9 -7.9°
Maximum altitude 18:01:02 77° 294° (WNW) 874 4.4 -9.0°
Drops below altitude 10° 18:06:44 10° 22° (NNE) 2,473 6.5 -10.0°
Sets 18:09:11 0° 24° (NNE) 3,408 7.2 -10.5°
